[TLELIST] Archives

 

[list_settings.list_name] Current TLEs

March 29th 2014 PDT

HST 1 20580U 90037B 14087.77724976 .00005095 00000-0 33807-3 0 4687 2 20580 028.4700 205.6047 0003452 139.5271 350.3113 15.05038116112598 ISS (ZARYA) 1 25544U 98067A 14088.44217881 .00019745 00000-0 34643-3 0 9715 2 25544 051.6478 134.7982 0003762 330.7005 167.6271 15.50537607878959 CXO 1 25867U 99040B 14091.19834908 -.00000037 00000-0 00000+0 0 99 2 25867 076.6980 324.1598 8217098 275.0816 359.9848 00.37803269 11626 ____________________________________________________________________ These 2-Line ...Continue Reading

[list_settings.list_name] Current TLEs

March 28th 2014 PDT

HST 1 20580U 90037B 14086.64732154 .00005283 00000-0 35105-3 0 4670 2 20580 028.4700 213.0284 0003441 126.6872 348.9827 15.05025231112427 ISS (ZARYA) 1 25544U 98067A 14087.47013709 .00020421 00000-0 35041-3 0 9648 2 25544 051.6497 139.6140 0003588 005.7333 102.1274 15.51142863878807 CXO 1 25867U 99040B 14088.55445371 .00000061 00000-0 00000+0 0 82 2 25867 076.7025 324.2464 8222499 275.1335 000.0458 00.37803907 11617 ____________________________________________________________________ These 2-Line ...Continue Reading

[list_settings.list_name] Current TLEs

March 27th 2014 PDT

HST 1 20580U 90037B 14084.79610093 .00005890 00000-0 39293-3 0 4666 2 20580 028.4693 225.1911 0003503 104.9816 040.8650 15.05006090112148 ISS (ZARYA) 1 25544U 98067A 14086.37490258 .00021263 00000-0 36505-3 0 9577 2 25544 051.6491 145.0485 0003545 359.1426 108.8600 15.51100425878631 CXO 1 25867U 99040B 14088.55445371 .00000061 00000-0 00000+0 0 82 2 25867 076.7025 324.2464 8222499 275.1335 000.0458 00.37803907 11617 ____________________________________________________________________ These 2-Line ...Continue Reading

[list_settings.list_name] Current TLEs

March 26th 2014 PDT

HST 1 20580U 90037B 14084.79610093 .00005890 00000-0 39293-3 0 4666 2 20580 028.4693 225.1911 0003503 104.9816 040.8650 15.05006090112148 ISS (ZARYA) 1 25544U 98067A 14085.27971296 .00020544 00000-0 35362-3 0 9516 2 25544 051.6486 150.4846 0003424 355.6037 112.9535 15.51051586878468 CXO 1 25867U 99040B 14085.90874626 .00000311 00000-0 00000+0 0 74 2 25867 076.6958 324.3653 8230405 275.1566 359.9500 00.37805710 11601 ____________________________________________________________________ These 2-Line ...Continue Reading

[list_settings.list_name] Current TLEs

March 25th 2014 PDT

HST 1 20580U 90037B 14082.86951245 .00005959 00000-0 39790-3 0 4656 2 20580 028.4690 237.8473 0003467 089.9194 037.0860 15.04986683111850 ISS (ZARYA) 1 25544U 98067A 14084.18185181 .00024868 00000-0 42670-3 0 9451 2 25544 051.6505 155.9288 0003632 348.6265 105.7694 15.51016925878291 CXO 1 25867U 99040B 14085.90874626 .00000311 00000-0 00000+0 0 74 2 25867 076.6958 324.3653 8230405 275.1566 359.9500 00.37805710 11601 ____________________________________________________________________ These 2-Line ...Continue Reading

[list_settings.list_name] Current TLEs

March 24th 2014 PDT

HST 1 20580U 90037B 14082.86951245 .00005959 00000-0 39790-3 0 4656 2 20580 028.4690 237.8473 0003467 089.9194 037.0860 15.04986683111850 ISS (ZARYA) 1 25544U 98067A 14083.40568632 .00024943 00000-0 42855-3 0 9393 2 25544 051.6500 159.7780 0003560 345.2153 092.5299 15.50978194878179 CXO 1 25867U 99040B 14085.90874626 .00000311 00000-0 00000+0 0 74 2 25867 076.6958 324.3653 8230405 275.1566 359.9500 00.37805710 11601 ____________________________________________________________________ These 2-Line ...Continue Reading

[list_settings.list_name] Current TLEs

March 23rd 2014 PDT

HST 1 20580U 90037B 14081.81012549 .00006039 00000-0 40350-3 0 4648 2 20580 028.4691 244.8062 0003620 078.7512 057.2337 15.04976583111697 ISS (ZARYA) 1 25544U 98067A 14082.49298416 .00025294 00000-0 43513-3 0 9337 2 25544 051.6498 164.3055 0003669 340.6547 037.7105 15.50933508878030 CXO 1 25867U 99040B 14083.26284395 .00000445 00000-0 00000+0 0 66 2 25867 076.6855 324.5063 8235618 275.1542 359.8893 00.37803208 11591 ____________________________________________________________________ These 2-Line ...Continue Reading

[list_settings.list_name] Current TLEs

March 22nd 2014 PDT

HST 1 20580U 90037B 14080.73806255 .00005076 00000-0 33737-3 0 4633 2 20580 028.4696 251.8487 0003546 069.2339 006.9562 15.04967210111520 ISS (ZARYA) 1 25544U 98067A 14081.47530476 .00024522 00000-0 42297-3 0 9262 2 25544 051.6495 169.3536 0003511 334.4448 118.1841 15.50878173877871 CXO 1 25867U 99040B 14083.26284395 .00000445 00000-0 00000+0 0 66 2 25867 076.6855 324.5063 8235618 275.1542 359.8893 00.37803208 11591 ____________________________________________________________________ These 2-Line ...Continue Reading

[list_settings.list_name] Current TLEs

March 21st 2014 PDT

HST 1 20580U 90037B 14077.75109080 .00004197 00000-0 27714-3 0 4612 2 20580 028.4697 271.4697 0003533 042.8441 018.5049 15.04938338111077 ISS (ZARYA) 1 25544U 98067A 14080.44494288 .00000054 00000-0 87752-5 0 9191 2 25544 051.6487 174.4637 0004155 332.7573 123.4716 15.50802791877712 CXO 1 25867U 99040B 14083.26284395 .00000445 00000-0 00000+0 0 66 2 25867 076.6855 324.5063 8235618 275.1542 359.8893 00.37803208 11591 ____________________________________________________________________ These 2-Line ...Continue Reading

[list_settings.list_name] Current TLEs

March 20th 2014 PDT

HST 1 20580U 90037B 14077.75109080 .00004197 00000-0 27714-3 0 4612 2 20580 028.4697 271.4697 0003533 042.8441 018.5049 15.04938338111077 ISS (ZARYA) 1 25544U 98067A 14079.48005350 .00000054 00000-0 87752-5 0 9078 2 25544 051.6476 179.2417 0004337 324.9959 140.7977 15.50746162877565 CXO 1 25867U 99040B 14080.61751496 .00000412 00000-0 00000+0 0 78 2 25867 076.6810 324.6236 8238818 275.1569 359.9093 00.37802876 11581 ____________________________________________________________________ These 2-Line ...Continue Reading
  • This mailing list is a public mailing list - anyone may join or leave, at any time.
  • This mailing list is announce-only.

International Space Station (ISS) / Hubble Space Telescope (HST) / Chandra X-Ray Observatory Orbital Data via EMAIL

Privacy Policy:

Private list